Tracking 32142 objects as of 13-Nov-2025
HD Live streaming from Space Station
objects crossing your sky now

STARLINK-35125

Track STARLINK-35125 now!
10-day predictions
STARLINK-35125 is classified as:


NORAD ID: 65534
Int'l Code: 2025-200Q
Perigee: 553.1 km
Apogee: 554.8 km
Inclination: 97.6 °
Period: 95.6 minutes
Semi major axis: 6924 km
RCS: Unknown
Launch date: September 6, 2025
Source: United States (US)
Launch site: AIR FORCE EASTERN TEST RANGE (AFETR)
Your satellite tracking list
Your tracking list is empty




NASA's NSSDC Master Catalog

Two Line Element Set (TLE):
1 65534U 25200Q   25316.44221700  .00030212  00000-0  20405-2 0  9990
2 65534  97.6054  24.1500 0001219  88.4883 271.6483 15.06528620 11480
Source of the keplerian elements: AFSPC